User: anonymous   Login
Location: ?
(35.4996°N, 139.3166°E)
Time: 16:59:11
(UTC+00:00)
Language:

CZ-6A DEB - Orbit

View from above orbital plane
View from above orbital plane
View from above satellite
View from above satellite

Ground track
Ground track

The orbit is defined by the following mean orbital elements,

1 54975U          26017.26122600 +.00000000 +00000-0 +44806-2 0 00002
2 54975  98.8203 132.2396 0059141 319.5178  40.1654 15.09760712    00
Epoch (UTC): 17 January 2026 06:16:09
Eccentricity: 0.0059141
inclination: 98.8203°
perigee height: 496 km
apogee height: 578 km
right ascension of ascending node: 132.2396°
argument of perigee: 319.5178°
revolutions per day: 15.09760712
mean anomaly at epoch: 40.1654°

The dashed part of the orbit path shows where the satellite is in the earth's shadow,  

DLR